RH
100 100 100 100 100 100 101 100 100 100 89 77 76 82 87 92 92 85 85 87 82 78 77 79 82 84 85 84 87 91 93 94 94 91 88 90 94 95 97 96 90 88 87 88 91 91 90 87 82 77 75 76 77 76 74 72 69 69 68 65 57 47 41 37 34 34 34 39 48 57 67 75 80 87 90 82 76 68 57 45 30 16 8 5 4
99 100 100 99 100 100 100 100 100 100 94 84 83 91 94 94 93 87 89 92 86 83 81 79 81 83 83 84 87 90 93 92 90 89 88 92 97 99 100 96 91 92 94 95 97 94 91 87 84 81 78 79 79 75 71 68 68 68 63 54 42 35 32 29 27 28 30 35 41 56 71 73 79 87 83 68 59 52 38 23 11 5 4 3 3
100 100 100 100 100 100 100 100 100 99 97 92 91 96 96 96 93 89 92 92 87 87 85 82 83 84 84 87 90 93 95 93 90 92 92 94 99 100 100 98 97 98 98 97 96 93 90 88 86 83 81 81 77 71 69 67 65 60 48 38 31 29 27 24 24 22 25 34 47 66 74 77 88 80 60 49 44 38 23 9 5 2 3 3 3
100 100 100 100 100 100 100 100 100 100 99 96 96 97 97 95 93 92 92 89 87 86 86 85 84 84 86 91 96 96 97 97 95 95 97 98 99 100 99 99 99 99 98 97 97 92 87 85 82 80 79 74 70 69 67 60 52 42 33 28 26 24 22 18 18 14 15 25 40 56 60 69 76 51 31 33 31 27 14 3 5 2 2 4 3
100 100 100 100 100 100 100 100 101 99 97 96 94 95 96 94 92 92 89 86 85 86 86 84 83 83 86 93 98 98 99 100 99 98 99 100 99 100 100 100 100 99 99 97 93 86 82 80 75 72 69 68 69 65 55 43 34 29 25 23 21 18 15 10 10 8 7 9 14 29 42 47 36 17 28 36 19 15 11 1 4 2 3 4 2
100 100 100 100 100 100 100 100 100 99 98 93 88 89 91 91 92 89 84 84 85 86 86 82 81 80 81 87 92 96 99 100 100 99 99 100 99 100 100 100 99 99 99 96 92 87 81 74 65 62 66 68 64 50 37 29 25 23 20 17 13 10 8 5 5 5 3 3 2 8 17 18 8 3 25 34 17 10 7 3 5 2 3 4 2
100 100 100 100 100 100 100 100 100 100 98 89 82 84 84 85 89 86 82 85 86 86 86 84 83 82 84 90 92 94 96 98 99 98 99 100 99 99 100 100 99 98 96 95 95 87 74 63 58 63 68 61 47 33 26 22 19 16 12 9 6 3 4 3 2 3 2 2 2 2 2 2 4 1 7 19 21 17 7 3 6 4 4 4 3
101 100 100 100 100 100 100 100 100 100 97 87 79 79 78 80 84 83 82 85 85 85 86 86 87 88 91 96 97 98 98 98 98 97 98 100 99 99 99 98 96 95 93 90 85 75 64 59 61 64 59 45 33 25 21 17 12 9 5 4 3 2 3 2 2 2 2 2 1 3 2 1 3 1 1 5 11 18 13 4 4 6 5 4 4
100 100 100 100 100 100 100 100 100 99 96 86 76 76 77 79 82 82 83 84 84 86 87 88 90 93 95 96 95 98 100 99 98 97 95 98 100 99 99 97 93 90 87 81 73 67 64 63 61 58 47 34 26 20 15 10 7 4 3 3 2 2 2 2 2 2 1 3 2 2 2 2 2 1 3 1 1 11 12 3 3 6 6 6 6
100 100 100 100 100 100 100 100 100 99 96 86 76 75 77 79 82 83 84 83 84 87 89 90 92 94 96 97 94 92 95 95 95 97 97 98 99 99 99 99 94 87 79 74 71 69 66 62 57 49 38 28 20 14 10 6 4 3 3 2 2 2 2 2 2 2 2 2 2 3 2 2 3 1 2 3 1 4 5 2 3 4 6 7 7
101 100 100 100 100 100 100 100 100 100 99 89 77 76 77 79 83 85 85 86 87 90 92 93 94 93 95 98 95 91 92 90 91 97 99 99 100 100 100 99 93 84 77 75 74 70 66 59 49 40 30 21 15 10 6 4 3 3 2 2 2 2 2 2 2 2 3 2 2 3 2 2 3 2 2 2 2 2 3 3 3 3 5 6 6
100 99 100 100 99 101 100 100 100 100 101 92 79 76 78 80 84 87 89 89 90 91 93 94 93 92 95 99 98 97 96 94 94 98 99 100 100 100 100 99 93 85 81 81 75 67 62 51 38 30 22 15 10 7 5 4 3 3 2 2 2 2 2 2 2 2 2 2 2 2 2 3 2 2 3 2 3 3 3 3 3 3 4 5 6
98 97 99 101 99 100 100 100 100 99 101 96 82 76 78 81 85 89 91 91 91 93 94 94 93 92 95 97 99 100 100 99 99 100 100 100 100 100 100 100 95 88 86 82 71 60 51 38 28 22 16 11 9 7 5 4 3 3 3 3 2 3 2 2 2 3 2 2 3 2 2 3 2 3 3 3 3 3 3 4 3 3 4 4 4
95 96 99 100 100 100 100 100 100 99 101 97 85 77 78 82 88 92 93 93 94 96 97 95 93 94 96 98 99 100 100 100 100 100 100 100 100 100 100 99 95 90 87 76 59 46 37 27 21 17 13 10 9 7 5 5 5 5 4 3 3 3 2 3 2 2 3 2 2 3 3 3 3 3 3 3 4 4 4 4 4 4 4 4 5
94 96 99 100 100 100 100 100 98 98 100 97 86 79 80 83 90 94 96 97 98 99 99 96 95 97 98 98 99 100 100 100 100 100 100 100 100 100 100 99 95 89 81 62 42 33 26 20 17 16 14 12 10 9 6 6 7 6 4 3 3 3 3 3 3 2 3 3 2 3 3 3 3 3 4 4 4 5 6 5 6 5 4 4 3
94 97 98 100 101 99 101 100 97 97 100 99 88 81 81 85 90 95 97 100 99 100 100 98 98 99 98 99 99 100 100 99 99 99 100 100 100 100 100 99 94 84 66 45 29 23 20 17 18 17 15 14 13 10 8 8 8 5 4 3 3 3 3 2 3 3 3 3 3 3 4 3 4 4 4 5 5 6 6 6 7 7 11 19 14
93 96 97 100 101 99 101 100 97 97 99 100 91 83 81 84 92 98 99 100 100 100 100 99 100 100 98 99 99 100 100 98 98 100 100 100 100 100 100 97 90 73 49 30 22 18 16 18 20 18 16 16 13 10 9 9 7 5 4 4 4 4 4 3 4 4 4 4 4 4 5 4 4 5 5 6 6 6 7 8 10 10 19 39 46
92 95 97 99 100 100 99 100 98 95 98 101 95 88 85 87 94 99 99 100 100 100 100 100 100 100 100 100 99 100 100 98 100 100 100 100 100 100 100 93 82 60 34 21 18 15 15 18 19 17 15 14 13 11 11 8 6 5 4 4 5 5 5 5 5 6 5 6 6 5 5 5 5 6 6 7 7 7 9 11 15 17 22 37 53
92 94 96 98 100 99 98 100 98 96 99 101 98 94 93 94 95 97 98 100 100 99 100 100 100 100 100 99 99 99 99 99 100 100 100 100 100 100 97 87 72 47 23 17 17 13 13 14 15 15 13 13 13 12 10 8 6 6 5 4 6 7 7 6 7 7 7 8 7 6 6 6 7 7 8 8 8 9 11 13 19 24 27 28 34
91 94 96 99 101 97 97 99 98 99 100 100 99 97 97 97 96 98 100 100 100 100 100 100 100 100 99 98 99 99 100 101 100 100 100 100 98 98 93 82 62 34 16 15 15 11 11 11 11 12 11 11 12 10 9 9 7 6 6 6 7 9 9 8 9 9 9 9 9 8 8 7 8 9 9 9 9 10 10 13 17 19 25 27 25
91 94 96 99 99 97 99 99 98 100 100 100 100 99 99 98 97 99 100 99 100 100 100 100 100 100 100 99 100 100 100 100 100 100 100 97 95 93 87 73 50 23 11 12 11 9 9 9 9 9 9 9 9 8 9 9 8 7 7 8 10 11 11 10 11 10 10 10 9 9 8 8 9 10 9 9 9 11 11 11 14 14 17 24 23
92 94 95 97 97 97 99 99 99 100 100 101 100 99 99 96 96 100 100 99 100 100 100 100 99 99 100 100 100 100 100 100 100 100 97 93 91 88 79 62 38 17 10 10 8 7 7 8 8 7 7 8 8 9 9 8 8 8 9 10 12 15 14 13 12 11 11 11 10 9 8 8 10 9 9 10 8 9 11 11 12 13 14 17 19
94 95 96 96 95 97 100 100 100 100 100 100 99 99 99 95 97 100 99 97 98 100 100 100 100 98 98 100 100 100 100 100 100 96 92 89 85 81 70 50 30 15 9 8 7 6 5 6 6 5 6 7 8 9 9 9 11 11 10 11 14 18 17 14 14 13 11 11 10 9 8 8 9 10 9 9 9 9 10 10 10 13 14 15 16
95 95 95 96 95 98 101 99 100 100 99 100 99 97 94 95 99 100 98 96 96 99 100 99 99 98 98 101 100 100 100 98 95 90 89 87 82 77 62 40 26 16 8 6 5 4 4 4 4 5 5 6 8 8 7 10 14 14 13 13 16 18 17 15 16 14 10 10 9 8 8 8 10 11 9 9 10 10 9 11 12 13 14 14 15
97 95 96 97 97 99 100 100 101 100 99 100 99 95 91 94 99 100 99 97 96 98 96 96 99 98 100 101 99 99 96 92 89 88 89 88 83 75 56 33 24 16 7 6 4 3 4 4 4 5 4 5 8 7 7 11 15 15 15 15 16 16 16 16 16 12 9 7 7 8 8 9 10 9 10 11 10 10 10 12 13 14 14 14 14
96 95 97 99 99 100 101 99 97 96 96 98 100 99 94 95 100 101 100 96 95 96 94 96 100 100 100 99 96 94 91 88 88 89 91 89 83 74 52 30 22 16 8 6 4 3 4 4 4 4 4 5 7 7 8 12 15 16 16 16 15 14 15 17 14 10 8 6 6 8 7 9 11 10 11 12 10 10 11 12 13 14 14 15 15
96 96 98 101 100 100 100 98 94 93 95 98 101 99 96 98 100 99 99 95 93 94 96 99 100 99 98 95 93 91 88 88 88 91 95 89 79 72 51 27 18 16 11 7 4 4 5 3 3 3 3 5 7 7 8 12 15 15 16 16 15 14 15 16 13 9 9 7 7 9 9 10 11 11 13 14 11 10 11 12 14 14 14 15 15
97 99 99 100 100 100 101 100 97 96 97 98 98 97 97 98 94 94 98 97 92 93 98 100 99 97 96 92 90 89 87 88 90 96 98 85 74 69 48 24 18 16 11 6 4 5 5 3 3 3 4 5 7 7 8 11 13 14 17 17 15 16 17 15 12 9 9 10 9 10 10 11 11 13 16 17 13 11 11 11 13 14 15 16 16
98 101 100 100 100 100 100 100 98 97 97 97 97 98 100 95 90 93 100 100 94 91 94 98 98 96 94 90 87 86 86 89 94 98 94 80 75 69 46 29 26 20 11 6 4 5 4 3 3 3 4 5 6 7 8 11 12 12 16 17 17 19 19 16 14 12 10 11 11 11 10 11 12 15 18 18 15 12 11 11 12 14 16 17 18
99 100 100 99 100 100 100 100 99 97 98 98 97 95 94 93 95 98 100 100 97 91 90 94 97 96 94 89 85 84 84 88 94 97 89 80 80 72 52 41 35 24 12 6 4 5 3 3 3 3 3 5 5 7 9 10 11 12 14 16 17 19 19 17 17 16 13 11 11 11 10 10 13 15 16 15 12 10 10 9 11 14 16 19 19
100 100 100 99 99 100 100 100 98 98 99 100 98 94 89 89 95 100 101 100 97 91 88 92 97 96 92 88 84 81 82 87 90 88 80 76 76 70 59 50 36 19 11 6 4 4 3 2 3 3 4 4 4 7 10 9 9 11 14 14 15 16 15 16 16 16 15 12 11 10 9 10 14 15 13 11 9 9 8 7 9 11 13 15 17
99 99 100 100 100 100 100 101 98 95 97 99 100 98 91 87 88 93 98 98 95 91 85 87 95 96 91 89 84 79 81 84 82 76 70 67 65 60 58 53 35 15 7 5 4 4 3 3 4 4 4 4 5 6 9 9 9 11 12 12 12 11 11 13 14 14 14 12 11 9 8 11 14 13 10 8 8 8 8 7 7 8 10 11 13
99 100 101 99 97 95 97 101 98 92 92 98 101 97 91 89 89 89 90 92 95 92 82 82 91 93 90 90 85 80 79 79 76 72 65 61 56 46 41 39 30 15 7 5 4 3 3 3 3 4 4 4 5 7 8 8 8 9 10 9 8 7 8 10 11 12 12 11 10 8 9 12 13 10 8 8 8 7 7 8 7 8 9 9 10
97 100 100 97 95 94 94 98 99 94 91 93 93 90 88 92 96 93 89 93 97 93 84 84 89 90 90 90 86 81 78 76 76 73 67 65 58 42 34 35 29 16 8 4 4 3 3 3 3 4 5 4 5 8 8 7 8 7 6 6 6 5 6 7 8 9 10 10 9 8 10 12 11 8 8 8 8 7 8 8 8 9 9 9 10
97 100 101 98 96 94 92 92 94 93 92 91 90 90 93 98 100 96 91 94 99 97 92 91 91 90 91 90 86 83 79 78 79 75 71 69 56 40 42 47 34 18 8 4 4 4 3 4 4 3 5 5 6 8 8 6 7 6 5 5 5 5 5 5 6 8 9 9 8 9 11 11 10 9 9 9 8 9 9 9 10 10 10 10 10
96 98 96 94 93 91 88 89 89 90 94 97 97 98 100 100 99 96 92 92 98 100 97 95 93 92 91 90 87 85 85 84 82 79 75 69 55 48 52 48 30 17 9 4 4 4 3 4 4 4 5 6 5 6 6 6 5 5 5 6 5 5 5 5 5 7 8 8 9 10 11 11 12 12 12 11 11 11 12 11 12 11 11 11 11
98 96 90 90 94 94 93 93 92 92 95 99 100 100 99 96 96 98 96 94 96 99 99 99 97 94 92 90 86 85 86 86 84 83 78 70 63 62 55 38 22 13 8 4 4 4 4 4 4 4 5 5 5 5 5 5 5 5 6 6 5 5 5 5 6 7 8 8 9 10 11 13 15 15 14 14 13 14 15 14 15 14 13 13 13
97 93 91 93 96 97 97 97 95 95 94 94 96 96 95 95 97 99 99 98 97 98 99 99 98 97 97 94 87 83 84 84 82 83 81 74 72 65 47 31 21 12 5 4 5 4 4 5 4 5 5 4 5 5 5 6 8 7 6 5 5 5 5 6 7 7 8 9 10 10 13 16 18 17 16 16 15 17 18 19 19 18 16 16 15
79 78 82 89 95 97 99 98 97 95 94 93 93 94 96 98 100 99 99 99 98 98 99 98 99 100 98 94 88 84 84 82 81 82 79 72 70 61 40 27 22 13 5 5 5 4 5 5 5 5 5 5 6 7 8 9 8 7 6 5 5 6 5 6 8 8 9 10 10 12 16 19 20 20 19 19 19 20 21 22 22 22 21 19 18
76 76 78 84 93 98 99 99 98 96 97 97 96 97 99 100 99 99 98 98 98 98 99 99 100 100 97 93 89 86 84 83 82 84 78 69 65 57 40 30 24 15 7 5 5 5 6 5 5 6 6 7 9 10 10 9 7 6 6 6 6 6 6 7 7 8 9 10 12 16 20 21 22 23 22 21 22 23 23 23 25 26 26 24 22
72 77 81 86 92 94 94 96 99 98 99 100 99 100 100 99 99 99 98 96 97 98 100 100 100 100 97 94 90 87 85 85 84 85 79 69 62 55 44 37 29 17 7 5 6 6 7 6 5 7 10 10 10 9 9 8 8 7 7 7 7 7 7 8 8 9 11 13 16 21 22 22 23 24 23 23 24 25 25 25 26 27 28 28 26
72 75 79 83 88 92 94 97 100 100 99 100 100 100 100 99 99 98 97 96 97 99 100 100 100 100 98 95 91 87 87 87 87 87 82 73 66 61 53 46 36 20 8 5 7 7 7 7 8 11 13 12 10 10 10 9 9 8 7 8 9 8 9 9 10 12 14 16 18 21 21 22 24 23 23 25 26 26 27 28 28 27 27 28 27
75 79 81 81 84 92 98 99 99 99 100 100 99 99 100 99 99 98 98 98 97 99 100 100 100 100 99 95 90 88 88 89 88 87 83 76 71 68 61 53 45 30 13 6 8 9 8 9 11 14 15 14 13 12 12 10 10 10 9 9 10 10 10 11 12 14 15 17 20 20 21 23 24 24 26 28 29 30 32 32 31 28 27 26 26
71 77 81 82 84 90 95 98 97 97 99 100 98 99 100 100 99 100 99 98 98 99 101 100 100 100 98 93 89 88 90 90 88 87 83 77 72 70 65 60 58 47 26 11 8 9 10 11 13 14 17 18 16 14 13 12 12 12 11 11 11 11 12 13 14 16 17 19 20 21 22 25 26 28 29 30 33 38 40 39 36 30 27 26 25
71 75 79 83 85 87 92 98 99 98 100 100 99 99 99 99 99 100 100 99 99 100 100 100 100 100 97 92 88 89 91 90 88 85 82 76 71 68 66 67 68 62 44 25 11 8 11 13 14 16 20 21 20 16 14 13 13 13 13 13 13 13 14 15 16 17 18 19 20 22 25 28 31 33 33 34 39 44 46 45 39 31 27 26 26
75 78 83 89 91 91 95 99 100 100 100 100 100 100 99 99 99 100 99 98 99 100 100 100 100 99 96 91 89 90 91 89 87 85 81 75 70 65 63 67 69 63 53 39 22 12 12 13 13 19 24 24 22 19 16 14 14 14 14 14 14 16 17 18 19 20 21 21 22 26 30 33 35 38 39 40 44 48 48 45 38 30 27 27 27
77 77 83 91 95 97 100 100 100 100 100 100 100 100 100 99 99 99 99 98 99 101 100 100 100 99 95 91 89 89 89 87 87 88 84 78 74 68 63 62 62 57 55 51 36 20 13 11 15 24 29 27 23 20 18 16 14 14 14 14 14 15 17 19 21 23 24 25 27 30 33 35 39 43 46 47 49 49 46 41 35 31 31 33 34
81 81 85 92 96 99 100 99 99 100 100 100 101 100 100 100 99 99 100 99 100 101 99 100 100 97 93 91 89 88 86 83 85 89 86 80 77 76 71 62 51 42 40 38 31 22 14 11 15 25 31 30 26 23 19 17 16 15 15 14 14 15 15 17 19 21 23 26 30 33 36 39 42 47 50 53 54 51 43 36 35 38 41 43 45
84 86 90 94 97 100 101 100 100 100 99 99 100 100 100 100 100 100 100 100 100 100 100 100 99 95 93 91 90 89 84 79 80 85 83 76 70 67 64 53 39 29 25 20 16 15 13 10 16 27 33 32 29 26 24 24 23 20 17 15 15 16 15 16 16 18 21 26 31 36 39 41 44 49 51 53 55 53 44 36 39 46 48 48 50
87 90 94 97 96 97 96 90 88 93 99 100 99 100 100 100 100 100 100 100 100 100 100 100 98 94 92 90 89 88 84 77 74 75 75 73 68 61 53 41 31 29 28 21 16 13 10 10 20 33 37 34 33 36 38 35 27 22 18 15 15 15 15 16 16 17 20 25 30 35 38 41 45 49 51 53 54 53 47 41 43 49 49 48 50
89 94 98 99 97 97 94 82 75 84 97 101 99 100 101 100 99 100 99 100 101 100 100 100 97 93 90 88 88 86 81 74 70 66 65 67 68 66 60 52 45 38 27 18 15 13 10 13 26 40 43 40 42 48 49 41 30 22 17 14 14 16 15 15 16 17 20 25 30 34 38 42 46 50 51 52 53 53 49 44 44 48 48 48 49
Wind_Speed
23 25 25 25 25 25 24 24 23 20 21 23 25 26 25 22 21 19 19 19 18 18 18 17 16 13 11 9 8 6 6 6 6 6 6 5 5 4 4 4 5 4 3 3 3 4 6 8 10 10 10 11 12 13 13 13 13 12 11 10 9 8 6 5 4 2 1 1 3 5 5 4 3 2 3 5 6 7 8 9 11 12 12 13 13
21 21 22 24 24 23 22 22 21 20 22 24 26 26 22 21 20 20 21 20 18 17 16 15 13 11 9 8 7 7 7 7 7 6 6 6 4 4 3 3 3 2 2 3 5 7 8 10 11 11 12 14 15 15 15 14 12 10 8 7 7 6 4 4 4 3 1 2 3 5 5 4 2 2 4 6 7 8 10 11 12 13 13 13 14
19 19 20 22 22 22 21 21 21 21 23 24 26 24 19 20 22 21 21 19 17 16 14 13 12 10 9 8 7 8 8 8 8 7 7 5 4 4 3 3 3 3 4 6 8 9 11 11 12 13 14 15 16 15 14 11 8 6 5 5 5 6 5 5 5 4 2 2 3 4 4 4 1 3 6 6 7 9 10 12 13 14 14 14 15
18 18 19 21 21 21 22 22 22 23 24 24 24 23 20 20 21 21 20 18 16 15 14 13 11 10 10 9 8 8 8 9 8 7 6 6 6 5 5 4 5 5 6 8 10 11 12 12 13 15 16 16 15 13 10 7 4 4 4 5 6 6 6 6 5 5 5 3 3 3 3 4 3 2 4 6 8 8 11 14 15 15 15 15 16
19 19 20 21 22 23 23 23 24 26 27 24 22 21 20 20 20 20 18 16 15 13 13 12 12 12 12 10 10 10 10 10 10 8 8 8 7 6 5 5 6 7 8 11 12 13 13 14 16 16 16 14 11 8 5 4 5 5 5 6 6 5 6 7 6 6 8 7 5 4 4 4 4 4 3 5 7 8 11 14 15 15 16 17 18
23 22 22 23 23 24 24 24 26 29 28 24 21 21 21 20 20 19 17 16 14 12 11 12 12 13 13 12 12 13 13 12 11 9 9 9 7 7 6 6 8 9 10 12 13 14 15 16 15 14 12 9 6 4 5 5 6 5 6 6 5 5 7 7 6 8 9 9 10 9 7 6 7 8 6 4 5 7 11 14 14 15 16 17 19
25 22 23 25 25 25 26 25 26 28 26 24 23 22 20 19 19 18 18 17 15 13 12 12 12 13 13 12 12 13 13 12 11 9 9 9 8 7 7 7 9 10 12 13 14 14 15 14 12 10 7 5 5 6 6 6 6 6 6 6 6 6 7 7 8 9 9 10 12 11 11 11 10 11 9 7 5 5 10 15 15 16 16 17 19
25 23 23 26 27 27 27 26 25 24 24 24 23 22 20 19 19 18 18 17 15 14 14 13 13 13 13 12 12 13 12 11 10 10 10 9 8 8 8 9 10 12 14 14 13 12 12 10 9 6 5 5 6 6 6 6 6 6 6 7 7 8 8 8 9 10 10 11 13 12 12 12 11 12 12 11 8 5 9 17 17 17 17 18 19
26 24 24 26 27 27 27 26 25 25 24 24 23 21 20 19 19 18 18 17 15 15 15 14 13 13 13 13 13 12 11 11 11 10 9 8 8 8 8 10 12 14 14 12 11 10 10 8 6 4 5 6 6 6 5 6 6 6 7 8 8 9 9 10 10 11 12 12 13 13 12 12 12 12 12 13 13 10 12 18 19 19 20 20 19
27 25 25 26 27 26 27 25 24 26 27 26 24 21 20 20 19 19 19 18 17 16 16 15 14 13 13 13 13 12 12 12 11 11 10 9 8 7 8 11 14 14 11 9 10 10 9 7 3 4 6 6 6 5 5 6 6 7 8 9 9 9 11 11 11 13 13 13 13 12 12 13 12 13 14 15 15 14 15 17 19 20 21 21 21
25 24 24 26 27 27 27 25 24 27 28 28 26 23 21 20 20 20 19 18 17 17 17 16 15 14 13 13 12 11 11 12 11 11 10 8 7 6 9 12 13 11 9 10 10 9 7 3 3 5 6 6 5 5 5 6 7 8 9 9 9 10 12 12 12 13 13 12 12 12 13 14 13 14 15 15 15 16 16 17 18 19 21 21 20
26 25 24 26 29 28 29 27 25 28 29 28 28 25 22 22 22 21 20 19 18 18 17 17 16 15 14 12 11 10 10 9 9 8 7 6 6 7 10 13 12 10 10 11 9 6 3 2 5 6 5 5 5 5 6 7 9 9 9 9 10 12 13 12 12 13 13 12 13 13 14 13 13 14 14 15 15 15 16 17 18 19 20 20 19
28 28 27 29 31 30 30 29 26 28 29 29 30 27 23 23 23 22 21 20 20 19 18 18 17 16 15 13 11 11 10 8 7 6 6 6 8 9 11 13 11 11 11 9 5 2 2 5 6 5 5 5 5 6 7 8 9 9 9 10 11 12 12 12 12 13 13 13 13 13 13 13 14 14 15 15 16 16 17 19 20 20 20 20 21
29 30 30 31 33 32 31 30 27 27 29 30 31 28 25 23 23 23 21 21 20 19 18 18 17 16 15 13 12 12 10 9 8 7 8 8 9 10 12 13 13 13 11 5 0 4 6 6 6 5 5 5 6 7 8 9 10 10 10 11 11 12 12 12 13 13 12 12 13 13 14 14 15 15 16 17 18 19 20 21 22 22 22 21 22
28 32 33 33 34 33 31 31 28 26 29 31 32 30 27 25 24 24 22 21 21 20 19 18 17 16 15 14 14 12 11 10 9 9 9 9 9 10 12 14 14 13 6 2 5 6 7 6 5 5 5 5 6 7 8 10 10 10 10 11 11 13 12 12 12 12 12 12 13 14 14 15 16 17 17 18 19 20 21 22 23 24 24 24 24
28 32 35 34 35 33 32 32 29 27 29 32 33 32 29 27 26 25 23 22 21 20 20 19 18 17 16 15 14 13 12 11 10 10 11 10 10 11 14 14 14 9 1 6 6 7 7 6 5 5 5 6 6 7 8 10 10 10 10 11 12 12 11 11 11 11 12 13 13 14 15 15 16 17 18 19 20 21 22 22 23 24 24 23 24
30 33 36 35 36 35 33 32 31 30 31 33 33 32 30 28 27 25 23 22 22 21 20 20 19 18 16 15 14 13 13 12 12 13 12 10 11 13 14 13 11 3 6 8 7 8 7 6 5 5 5 6 6 7 8 10 10 10 10 10 11 11 10 11 11 11 12 13 13 14 14 15 16 17 18 19 20 20 21 22 22 23 22 20 19
30 33 36 36 37 36 34 34 32 31 32 33 32 32 30 28 28 25 24 23 23 22 21 20 19 17 16 15 15 14 13 13 14 15 12 10 12 14 12 11 6 4 9 8 8 8 7 7 6 5 5 6 6 7 9 10 10 9 9 9 10 11 10 11 11 11 12 13 13 14 14 15 16 17 18 18 19 20 20 21 21 21 22 20 17
30 33 37 38 39 38 35 35 32 31 32 33 32 30 29 28 26 24 23 23 22 22 21 20 18 17 15 15 14 14 13 15 17 15 12 13 14 12 10 8 3 9 10 8 8 8 7 7 6 6 6 6 7 8 9 9 9 8 8 9 10 10 9 10 11 11 12 12 13 14 14 15 16 17 17 18 19 19 20 20 20 21 22 22 22
32 35 38 37 38 38 36 34 32 32 34 32 30 29 29 28 24 22 23 22 22 22 20 19 18 16 15 14 14 15 17 18 17 14 14 15 12 9 9 6 7 11 10 9 9 8 8 8 7 7 6 6 7 7 8 8 8 7 7 8 9 9 9 10 10 11 11 12 12 13 14 15 16 16 17 17 18 18 19 20 21 22 23 24 26
32 35 37 36 36 36 36 34 33 34 34 32 31 30 30 27 24 25 25 23 23 23 20 18 18 17 16 17 19 19 20 19 16 16 16 13 9 9 8 6 10 11 10 11 10 9 9 8 8 7 7 7 6 6 7 7 7 7 7 8 9 8 8 9 9 9 10 11 11 12 13 15 15 16 16 17 18 18 19 21 21 22 24 24 26
31 33 37 38 36 35 35 35 35 36 34 32 33 33 31 27 26 29 27 23 24 24 21 20 19 18 18 20 22 21 19 18 17 17 15 11 9 9 7 9 13 12 12 12 10 10 9 8 8 7 7 7 6 5 5 6 7 7 7 8 8 8 7 8 8 8 9 10 11 12 13 14 15 15 16 17 18 19 20 21 22 23 24 24 25
29 32 35 38 37 35 36 37 37 36 34 32 33 33 31 28 29 32 27 23 25 25 22 21 20 18 19 20 21 20 19 19 18 16 13 11 10 8 7 12 14 12 12 12 10 10 9 9 8 7 7 6 5 5 5 6 6 7 7 7 7 7 7 7 8 8 9 9 10 12 13 14 15 15 17 18 18 19 20 21 22 23 24 24 24
28 32 35 36 36 36 38 39 38 36 34 32 32 31 28 28 32 33 27 23 25 25 23 22 20 20 20 21 21 20 20 19 16 15 13 11 10 8 10 14 14 12 12 11 10 10 9 9 8 8 7 6 5 5 4 5 6 6 6 6 6 6 6 7 7 7 8 9 10 12 13 13 14 15 17 18 19 20 21 22 23 24 24 24 25
28 32 35 36 37 38 40 40 39 38 34 33 35 33 28 29 34 34 29 25 24 24 24 23 22 21 21 21 20 20 19 18 16 15 13 12 11 9 12 14 13 12 11 10 10 10 10 9 8 8 7 6 6 5 4 5 6 6 6 6 6 6 6 7 8 8 8 9 10 12 12 13 14 16 17 18 20 20 21 23 23 24 24 25 26
30 33 35 37 39 42 43 42 40 38 34 34 39 37 29 30 34 34 30 26 25 24 24 23 22 21 21 20 20 20 19 17 16 15 14 13 11 10 13 14 13 12 11 10 10 10 10 9 9 9 8 7 6 5 5 5 5 6 6 6 5 6 6 7 8 8 8 9 10 11 12 13 14 16 17 19 20 21 22 23 23 23 24 26 27
32 35 35 37 41 44 45 44 41 38 34 35 38 35 31 32 34 33 30 27 25 25 25 23 21 20 20 20 20 19 18 17 16 16 14 13 12 12 14 14 13 13 11 11 11 10 10 10 9 9 8 7 7 6 5 5 5 6 6 6 5 6 6 7 8 8 8 9 10 11 12 13 14 15 17 19 20 21 22 22 22 24 25 27 29
33 37 38 39 40 43 45 44 40 37 35 34 35 36 35 33 32 32 32 29 26 25 25 22 21 21 20 19 19 18 17 17 17 16 15 14 13 15 16 15 14 13 12 12 11 10 10 10 10 10 9 8 7 6 5 5 5 5 6 6 6 6 7 7 7 7 8 8 9 10 11 12 13 15 16 18 19 21 22 21 22 24 25 27 29
34 37 40 40 40 43 45 43 39 37 35 33 34 36 34 31 31 35 35 31 27 25 24 22 21 21 20 19 18 18 17 17 18 17 16 15 15 16 16 15 14 13 13 13 12 11 10 10 10 10 9 9 8 7 6 5 5 5 6 6 6 7 6 6 6 6 7 7 8 9 10 11 12 14 15 16 18 20 21 21 22 23 25 27 29
35 39 41 41 42 43 43 43 41 38 36 36 36 35 33 31 34 38 37 32 27 23 22 23 22 21 20 19 19 19 18 19 19 17 15 14 15 16 16 15 13 13 13 13 13 13 12 11 10 10 10 9 8 7 6 6 5 5 6 6 5 6 5 5 5 5 6 6 7 8 9 10 11 13 14 15 17 19 19 20 21 22 24 26 28
36 41 42 41 42 43 43 44 42 37 37 40 40 37 34 32 33 36 36 31 26 23 21 22 21 21 21 20 20 20 20 20 19 17 15 15 16 16 15 14 13 13 13 14 14 13 12 12 11 10 10 9 8 7 7 6 6 6 5 5 5 4 4 4 3 4 4 5 7 7 8 9 11 13 14 15 17 18 19 19 19 20 21 23 26
38 41 40 39 41 43 43 44 41 36 37 40 41 38 35 33 31 32 33 30 28 25 24 23 22 22 22 21 21 21 20 20 19 16 15 15 16 17 15 13 13 13 14 15 14 13 12 12 12 11 11 10 9 8 7 6 6 6 5 5 4 4 3 3 2 2 3 5 6 6 7 9 11 12 14 15 17 18 18 19 19 19 20 21 23
37 40 40 40 41 42 42 43 41 37 36 39 40 37 35 35 35 33 31 32 32 29 25 24 23 23 23 22 21 21 21 20 19 16 16 16 17 17 17 15 14 14 15 15 14 13 13 12 12 12 11 10 9 8 7 7 6 6 6 5 4 4 3 2 1 1 2 4 4 5 6 9 10 12 14 15 17 18 18 19 19 20 21 22 22
35 38 40 41 41 40 40 41 41 37 34 36 37 35 34 37 39 34 28 31 35 32 27 25 26 26 25 23 22 22 21 21 19 18 18 16 17 18 18 16 16 16 16 15 14 13 13 13 13 13 12 11 10 9 8 7 6 6 5 5 4 3 3 2 1 0 1 2 3 4 6 8 10 12 14 15 16 17 18 19 20 21 22 23 24
34 36 39 40 41 40 38 38 38 36 36 37 37 37 37 38 36 31 25 29 35 34 30 28 29 29 27 25 24 23 22 22 22 21 19 16 18 20 18 16 16 16 15 14 13 13 14 14 14 13 12 11 10 10 9 7 7 6 5 4 4 3 3 2 1 1 0 1 3 4 6 8 10 12 14 15 16 17 18 19 21 22 23 24 25
33 36 40 41 41 40 39 37 36 35 36 38 38 37 37 34 32 31 29 29 32 33 31 30 31 30 28 27 26 25 24 24 23 22 20 17 18 20 18 17 16 16 15 15 14 14 14 14 14 14 13 12 11 10 9 7 6 6 5 4 4 3 3 3 2 2 1 1 2 4 6 8 10 12 13 14 16 17 18 20 21 23 24 24 25
27 30 37 39 38 38 37 36 36 35 35 36 35 34 32 32 33 35 34 32 32 34 34 32 32 31 30 28 26 25 24 23 23 23 21 18 19 20 18 17 17 17 17 16 15 15 15 15 15 15 13 12 11 9 8 7 6 6 6 5 5 4 4 4 3 2 1 1 2 4 6 8 10 11 13 14 16 17 19 21 22 23 24 25 26
23 27 34 37 36 36 36 35 36 36 34 33 34 33 33 34 35 35 35 34 35 36 36 35 35 33 30 27 24 24 23 22 23 24 21 19 20 21 18 16 16 16 17 16 16 17 17 16 15 14 13 12 11 10 9 8 7 7 6 6 5 6 5 4 3 2 1 1 2 4 6 8 9 10 12 14 15 17 19 21 23 24 25 26 27
25 28 32 34 35 35 35 35 36 36 35 34 33 33 34 34 33 33 34 35 35 36 37 37 36 32 28 25 24 24 24 23 24 23 20 19 21 20 18 17 16 16 17 17 17 18 18 17 16 15 14 13 12 11 10 9 8 7 7 7 7 6 6 5 4 2 1 1 3 4 6 7 8 9 11 13 15 18 20 21 23 24 25 26 28
28 29 30 32 34 35 36 36 36 36 35 35 33 33 34 34 33 34 34 33 32 33 34 36 34 30 26 25 24 24 24 24 24 23 20 20 21 21 19 18 18 18 18 18 18 18 18 18 17 16 15 13 12 11 10 9 8 7 7 7 7 6 6 5 4 3 2 2 3 4 5 6 7 9 11 13 15 18 19 21 23 24 25 26 27
27 29 30 32 33 33 34 35 35 34 34 34 34 34 34 33 34 34 32 29 28 28 30 32 31 29 27 25 24 24 24 24 24 23 21 21 22 21 20 19 20 20 20 19 19 19 18 18 17 16 14 13 12 11 10 9 8 8 7 8 7 6 6 5 4 3 2 2 2 2 3 4 6 8 10 13 15 16 18 20 22 23 23 25 26
27 28 29 31 32 33 33 34 34 34 33 32 32 33 33 33 34 33 29 27 27 27 26 28 29 28 27 25 24 24 25 24 24 23 23 23 23 22 20 20 20 21 20 20 20 20 20 19 18 16 15 14 13 11 10 9 8 8 8 7 7 6 5 4 4 3 2 1 2 1 2 3 6 8 10 12 14 15 18 19 20 22 22 23 25
28 29 30 30 31 32 34 34 34 34 32 30 30 31 33 34 33 31 29 28 27 27 26 27 28 28 27 25 24 25 26 25 25 24 25 25 25 24 21 20 21 21 21 20 20 21 21 19 18 17 16 15 13 12 11 9 9 8 7 7 6 5 4 4 3 2 1 1 1 1 2 4 5 8 10 12 14 15 17 19 20 21 22 22 24
27 28 29 30 30 31 33 33 34 33 31 29 29 30 32 33 32 31 30 28 27 27 27 27 28 28 27 25 24 25 26 25 24 25 26 26 26 25 23 22 22 22 22 22 22 22 22 20 19 18 18 16 14 12 11 10 9 8 7 6 6 5 4 3 2 1 1 1 0 1 2 4 6 8 10 11 13 15 17 19 20 21 22 22 23
25 27 28 29 30 30 31 33 34 33 30 28 28 28 29 30 30 30 29 27 27 28 28 28 28 28 26 25 25 26 26 25 25 26 27 27 27 26 25 24 24 23 22 23 23 23 23 21 20 20 18 16 14 13 11 10 9 8 7 6 6 5 4 3 2 1 1 1 1 2 3 5 6 8 9 11 13 15 17 19 20 21 22 22 23
25 27 28 29 29 30 31 33 33 32 30 28 27 26 26 27 28 28 27 27 27 27 28 28 28 28 27 27 26 27 26 25 25 26 26 27 27 27 26 25 25 24 23 24 25 25 23 22 22 21 19 17 15 14 12 11 9 8 7 6 5 5 4 3 2 2 2 2 2 3 4 6 7 8 9 11 13 14 16 18 19 20 21 22 23
23 24 26 29 31 31 32 33 32 31 30 28 27 25 24 24 26 26 26 27 27 27 27 28 28 28 28 27 27 26 25 25 26 26 26 27 27 26 26 26 27 26 25 25 25 25 25 25 24 22 20 18 16 15 13 12 10 9 8 6 5 4 3 3 3 3 3 4 4 4 5 7 7 8 9 10 12 14 15 17 18 19 20 21 22
22 23 26 29 31 32 32 32 31 30 28 27 27 26 24 23 24 25 26 26 27 27 26 25 26 27 27 27 26 26 25 26 27 28 28 28 29 28 27 27 26 26 26 26 27 27 27 26 24 22 20 19 17 16 14 12 10 9 8 6 5 4 3 3 4 4 5 5 5 5 6 7 8 8 9 10 12 13 15 15 15 16 18 20 22
21 23 26 29 31 31 31 29 28 27 26 26 27 27 25 22 22 24 25 26 27 27 25 25 26 27 27 27 27 26 26 27 28 29 29 28 28 27 26 25 24 24 23 24 25 26 25 25 23 22 21 19 17 14 11 10 9 8 7 6 5 4 3 4 4 5 6 6 6 6 7 8 8 8 9 10 11 13 13 13 13 14 17 20 22
19 22 26 28 28 27 25 22 21 23 25 27 27 26 25 24 23 23 23 25 27 27 27 27 27 27 27 27 27 27 26 27 28 29 29 27 26 24 23 22 21 21 21 22 22 22 22 22 22 20 19 17 14 11 9 9 9 8 7 6 5 5 5 5 5 5 6 6 6 6 7 8 8 8 9 10 11 13 13 11 11 13 15 18 21
18 22 25 25 25 23 21 19 19 21 26 28 28 27 26 25 24 23 23 24 25 26 27 28 27 26 26 26 27 27 27 27 28 29 28 28 27 25 23 22 20 19 20 21 20 20 20 21 20 18 16 15 13 10 9 9 7 7 6 6 5 5 6 6 6 6 6 6 6 6 7 7 7 7 8 10 11 12 12 11 10 11 14 17 20
Wind_Direction
219 222 223 225 227 228 226 224 224 218 205 199 203 206 200 199 202 199 195 190 188 190 188 189 193 198 207 217 221 224 239 247 253 260 263 263 257 242 222 216 224 235 244 258 275 285 289 291 292 295 303 313 315 317 320 320 318 314 312 316 326 337 345 348 359 33 94 226 231 234 232 233 245 270 317 339 347 357 6 8 7 6 4 3 3
218 221 223 225 226 226 224 221 220 216 206 202 206 209 202 199 199 193 194 195 194 196 194 196 200 205 218 227 230 233 238 246 253 255 256 255 238 218 204 199 218 248 267 279 284 287 291 293 295 303 312 316 316 319 321 319 318 316 320 333 346 358 16 28 33 50 89 232 228 215 216 223 238 291 332 345 356 10 18 17 15 12 9 10 10
213 215 219 223 223 221 219 216 215 212 208 206 208 212 208 199 194 191 198 202 198 197 197 202 205 211 224 234 239 240 239 245 247 246 252 244 209 203 207 190 201 230 252 268 278 285 291 294 301 312 316 316 316 319 320 319 322 331 345 360 12 19 25 38 49 55 76 176 195 198 206 194 195 313 331 354 14 21 19 18 18 17 14 14 14
204 206 213 218 218 217 215 213 211 207 206 208 208 210 206 196 193 197 205 206 200 199 201 205 210 217 227 235 241 245 245 246 241 232 236 231 208 206 214 209 226 251 267 280 289 293 299 306 314 317 314 313 316 319 322 331 354 18 27 30 29 22 14 23 41 52 64 102 163 186 177 145 132 338 344 18 30 24 16 15 18 18 16 15 15
204 203 208 213 214 214 213 213 212 206 207 207 204 205 201 195 199 204 205 202 199 201 206 211 216 222 227 228 230 234 234 233 228 220 220 224 217 214 226 241 261 275 284 294 301 307 315 320 320 316 312 314 319 328 349 25 46 51 46 44 32 18 16 20 31 48 57 68 88 113 122 119 102 64 47 44 37 26 16 14 15 17 16 13 13
218 213 211 213 214 213 212 215 214 207 202 198 197 202 201 199 202 204 201 200 201 202 210 219 224 230 235 237 236 231 223 219 220 221 223 227 224 224 239 258 271 280 288 299 310 318 323 322 318 315 316 326 345 21 51 58 57 55 49 49 36 26 32 27 36 53 58 63 65 71 76 74 70 67 77 80 51 37 26 20 18 20 18 14 13
222 216 214 216 216 213 212 215 215 207 195 190 194 200 199 198 200 201 201 202 204 206 212 222 228 234 239 244 244 236 228 221 220 224 227 231 232 234 251 269 277 284 295 306 314 319 321 321 319 322 336 8 41 58 63 59 55 53 49 51 43 42 48 41 47 55 54 55 54 55 54 54 56 56 65 78 71 52 30 25 27 26 22 18 16
218 213 213 218 219 218 217 216 216 211 197 191 196 198 195 195 198 200 202 205 208 211 216 224 229 231 233 231 229 230 231 228 224 226 227 229 234 244 262 276 282 290 301 311 316 318 321 324 327 341 18 49 63 63 58 53 51 49 50 56 54 57 62 55 54 55 50 49 48 47 44 44 46 45 51 54 52 54 25 20 25 27 25 23 19
220 216 214 219 221 222 221 218 218 215 204 199 199 198 194 194 198 201 204 208 211 215 218 223 223 222 225 223 220 221 221 224 227 229 228 225 232 248 268 282 292 301 309 314 317 321 325 327 336 17 61 74 77 70 61 54 53 57 62 67 66 65 66 61 58 56 52 51 49 46 43 42 41 40 41 39 39 43 26 17 19 19 21 22 19
221 219 218 222 221 220 219 217 219 215 207 205 203 200 197 195 199 203 207 210 213 217 218 219 217 214 217 217 217 216 215 222 228 225 223 226 235 256 280 292 303 313 317 318 321 327 329 328 355 69 87 87 83 73 67 62 64 71 73 74 73 69 67 63 58 56 54 55 53 50 46 42 38 35 34 31 30 32 25 17 16 16 17 18 16
216 217 217 220 219 218 216 215 219 215 208 206 205 203 200 198 201 205 209 211 213 217 216 215 214 213 213 210 212 219 222 228 230 227 229 237 253 279 292 299 310 317 319 323 326 328 327 333 71 95 94 87 84 77 71 72 73 76 77 77 74 69 66 61 58 58 57 55 52 46 42 39 36 34 32 29 26 26 23 17 14 15 16 17 15
212 214 210 211 212 213 212 213 218 216 209 206 205 204 202 201 205 207 209 210 211 214 213 213 214 213 209 205 211 221 229 237 239 242 249 256 278 291 296 304 313 315 317 324 325 321 328 92 105 102 97 94 92 83 76 77 76 77 78 75 70 65 62 58 56 56 52 50 47 42 40 38 36 37 34 30 28 26 24 19 16 15 14 15 14
211 213 209 206 209 208 206 209 215 215 210 207 205 204 203 205 207 209 210 210 210 211 211 212 214 211 206 204 211 218 226 238 244 253 262 271 282 288 298 305 305 307 316 323 321 308 121 117 111 106 106 103 93 84 80 80 78 76 72 67 64 61 57 54 51 50 47 46 45 43 41 38 37 38 34 31 29 26 23 20 17 15 15 16 15
210 212 209 206 208 207 204 206 211 211 208 206 204 204 205 207 207 209 212 211 210 210 212 212 211 208 205 204 210 215 221 228 235 250 262 269 273 281 296 298 297 308 319 325 163 138 126 119 115 112 110 101 91 84 80 79 75 70 66 62 59 57 53 49 47 47 46 46 45 43 40 38 38 36 32 30 27 24 22 20 17 14 14 15 16
208 209 209 206 206 205 203 207 211 209 207 207 205 204 206 208 208 208 210 210 210 211 211 211 208 205 205 205 209 214 217 222 233 248 255 255 261 280 292 291 298 314 327 124 138 132 125 122 120 116 108 98 90 82 77 77 72 65 62 57 56 54 50 47 46 44 44 45 44 41 39 37 36 34 31 28 26 24 22 20 17 15 13 11 13
203 205 206 205 205 203 204 210 213 211 212 211 207 204 206 209 208 209 209 209 211 211 210 208 205 204 205 207 209 212 215 224 236 242 242 246 261 281 286 287 302 319 93 138 139 135 130 127 125 119 109 97 88 81 76 74 68 62 58 54 54 54 49 47 47 45 45 46 43 40 38 36 36 33 30 28 26 24 22 20 18 19 17 10 7
201 204 204 203 204 204 206 211 214 213 214 214 209 204 206 209 208 208 208 207 209 209 207 207 205 204 206 207 209 212 217 229 237 235 235 244 266 279 280 290 309 318 141 141 144 142 136 132 129 122 112 99 89 84 77 72 67 61 56 53 54 54 50 50 49 48 48 46 42 40 37 36 36 33 31 29 27 24 22 21 19 19 20 14 3
200 202 204 205 204 206 209 212 216 216 214 214 211 206 206 210 209 206 204 205 207 206 206 207 205 205 206 205 209 214 219 227 229 228 232 249 270 276 280 296 302 165 149 147 149 145 139 136 132 125 117 106 93 84 76 72 68 60 55 55 56 55 52 53 53 50 49 46 42 40 38 38 38 35 32 31 28 25 23 22 20 18 18 16 5
197 199 203 206 205 206 209 212 216 217 213 212 213 208 205 210 210 205 203 205 205 205 205 205 204 205 207 207 211 214 217 221 222 225 238 258 270 273 283 292 234 160 153 153 153 148 143 141 136 131 123 107 93 83 76 73 69 62 58 58 62 61 57 57 57 52 50 48 42 40 39 39 39 37 35 32 28 26 25 23 21 17 13 10 7
196 197 200 203 203 205 208 210 212 212 209 209 211 209 208 210 206 200 202 204 205 205 204 202 202 203 207 211 212 212 214 217 220 231 250 261 263 264 277 268 180 160 157 157 157 153 148 145 138 132 121 105 95 85 80 76 70 66 64 66 70 70 64 62 60 55 53 50 43 41 41 41 41 39 36 33 29 26 25 23 21 18 13 7 5
195 195 197 199 201 204 205 207 208 206 205 205 203 204 208 209 201 195 199 202 204 205 202 202 202 200 206 213 214 211 213 217 226 241 252 257 255 258 266 218 169 163 162 160 161 156 150 146 137 131 120 109 101 90 86 81 75 73 72 76 79 78 71 66 62 58 55 51 46 45 43 43 42 40 37 33 29 27 24 23 21 17 16 9 4
193 193 195 197 200 200 200 204 204 201 203 203 199 200 207 209 199 194 199 204 203 202 201 201 201 199 204 212 213 212 215 224 236 244 248 250 251 256 240 185 169 167 165 162 161 155 149 145 139 133 126 121 113 103 95 86 82 80 79 83 85 82 75 69 66 62 57 53 50 48 45 44 42 39 37 34 29 27 24 22 20 17 16 13 6
192 192 194 196 200 199 197 198 199 199 202 205 203 204 208 206 197 195 201 206 202 200 200 199 199 202 207 212 214 218 227 235 239 240 242 245 248 246 205 176 170 169 167 163 159 154 150 148 145 141 136 132 126 118 106 94 90 86 84 89 90 86 80 74 73 69 61 58 54 50 46 43 42 39 36 34 30 26 23 21 19 16 13 10 6
190 192 194 196 198 196 194 194 196 200 202 203 203 204 205 202 197 196 202 207 203 201 202 200 200 206 210 213 218 225 233 236 235 234 237 238 238 228 188 171 169 171 171 166 162 158 155 153 150 147 143 139 136 130 117 105 101 96 94 95 93 90 87 84 81 74 66 59 52 49 46 44 42 39 35 33 30 26 23 20 17 14 10 5 2
186 190 194 196 196 195 193 194 197 199 201 203 203 201 201 203 200 196 199 205 205 202 202 202 204 209 212 217 223 228 230 230 228 229 229 229 230 212 179 170 170 173 172 171 170 164 159 158 155 151 148 146 147 140 127 118 112 109 106 101 97 96 95 93 84 73 64 56 49 46 45 44 41 38 34 30 28 26 22 19 15 10 6 2 360
187 190 191 192 193 193 192 195 199 201 202 204 200 196 199 203 199 194 196 205 207 202 201 204 206 209 215 220 225 226 225 224 224 222 220 223 223 198 175 171 172 173 175 174 173 168 163 161 158 156 155 155 156 151 139 132 124 118 113 106 101 102 100 92 80 70 61 51 47 44 42 41 38 34 31 26 24 24 21 17 13 8 4 0 359
187 189 190 189 189 190 193 197 200 202 204 203 199 198 201 201 197 196 201 207 206 201 202 205 208 213 220 223 224 224 223 221 219 214 215 221 213 187 175 175 174 175 176 175 173 170 169 167 163 162 161 161 163 160 150 143 134 124 118 112 109 106 100 90 77 68 60 50 45 43 39 38 34 30 27 22 20 21 20 16 10 6 3 359 358
185 187 189 188 187 188 191 195 197 201 203 203 205 206 202 197 198 203 204 202 201 201 204 206 211 219 222 222 223 222 219 217 212 209 214 216 199 181 176 178 180 178 175 175 174 174 175 174 169 165 165 168 169 168 160 150 140 129 124 122 116 108 99 90 78 66 58 49 43 41 37 34 31 27 22 18 17 17 16 14 10 6 2 359 357
184 184 186 190 190 189 190 194 198 203 204 203 204 202 198 199 206 207 201 197 197 200 205 210 217 221 221 222 222 219 214 211 206 207 213 207 191 183 181 180 181 181 177 175 176 177 179 178 173 168 169 173 175 173 166 154 145 137 134 132 123 111 102 90 78 64 56 48 40 37 35 30 29 25 19 16 16 15 12 10 8 5 1 358 355
182 183 188 193 194 192 193 197 200 203 203 201 198 197 200 206 211 205 197 193 194 199 207 215 220 221 221 220 219 215 210 206 204 207 210 201 190 189 188 183 182 181 179 179 179 178 178 176 174 172 172 177 180 177 170 160 154 149 143 140 131 119 110 97 80 62 50 44 38 33 30 27 24 21 16 15 16 15 12 10 9 6 1 357 353
183 187 190 193 195 194 194 196 199 202 203 200 197 197 200 205 209 204 196 192 194 200 212 219 221 221 221 218 215 210 205 202 203 204 201 195 193 194 193 189 184 182 182 183 182 180 179 175 172 173 176 181 183 179 175 170 164 158 152 147 142 133 121 107 89 65 46 39 35 29 25 22 19 15 12 13 14 13 11 10 10 8 3 357 353
186 189 188 189 193 195 193 193 198 203 204 201 200 199 200 203 207 203 200 202 201 201 210 220 222 221 220 217 212 206 202 201 200 198 194 192 192 192 193 192 188 185 185 184 182 181 179 174 171 174 179 183 186 182 179 178 172 166 163 156 151 146 134 116 98 66 41 35 31 25 23 19 15 10 9 12 12 9 9 9 7 7 6 1 356
188 188 187 190 194 197 198 197 200 204 207 206 203 202 204 207 205 201 206 214 207 199 206 219 222 219 219 218 212 204 202 201 197 191 188 189 191 192 192 190 188 188 187 184 182 179 176 175 173 176 181 184 186 185 183 184 179 172 169 164 161 157 150 143 125 54 30 31 26 21 24 19 9 7 9 11 9 6 7 7 5 5 6 3 359
190 189 190 194 195 198 201 203 203 205 206 207 206 208 214 212 204 200 210 218 208 198 202 215 221 219 217 216 212 205 203 200 195 189 186 190 197 196 192 189 189 191 187 182 182 178 175 175 174 176 182 184 185 187 188 187 182 177 174 168 165 161 159 173 181 60 12 19 19 18 24 17 6 7 10 8 6 5 5 5 4 5 5 3 360
191 191 193 195 196 198 202 205 207 208 208 209 210 213 213 208 201 201 213 221 214 205 204 212 220 219 215 213 211 206 201 199 196 190 189 197 201 196 192 191 191 191 187 181 180 178 176 176 176 177 179 182 184 186 188 187 183 181 179 173 172 172 170 186 196 186 337 2 13 17 20 14 7 7 8 5 5 5 4 3 3 5 4 3 1
189 191 194 197 199 202 204 204 207 210 210 210 209 207 205 202 205 210 214 218 218 214 212 214 218 218 215 213 210 203 199 199 196 192 195 203 199 192 193 194 191 189 184 179 179 179 178 178 178 177 177 180 184 185 185 187 185 184 185 185 187 189 190 197 198 188 208 355 15 18 18 14 9 6 3 3 4 4 3 2 2 4 4 4 3
187 191 196 199 199 201 203 203 205 207 208 207 205 204 205 210 216 216 213 212 216 218 219 219 219 218 216 214 210 205 202 202 198 197 201 203 196 192 193 193 191 188 182 178 179 179 178 179 179 177 176 179 182 184 185 186 187 189 193 196 196 198 201 202 191 182 185 14 16 19 20 15 10 6 3 3 4 3 3 3 2 2 2 2 2
186 191 195 198 199 200 202 203 204 206 208 209 208 209 213 217 218 215 212 213 217 220 221 222 221 219 215 212 211 209 209 207 205 204 204 200 193 193 193 191 190 188 182 180 181 179 177 178 179 178 179 182 183 186 188 188 190 195 198 199 199 199 198 192 177 170 159 44 16 17 21 17 12 9 6 4 3 3 4 3 1 1 1 0 359
195 196 196 197 199 200 202 204 206 207 209 210 210 212 213 214 213 213 215 218 221 222 224 224 222 218 213 211 210 209 209 210 209 208 205 198 194 193 191 187 186 186 184 183 182 181 180 178 178 180 183 185 185 188 192 192 192 195 196 194 193 190 185 173 161 155 130 52 24 20 23 18 13 12 9 5 3 3 4 3 1 360 359 358 356
199 198 197 197 197 198 200 203 206 208 208 208 209 209 210 210 212 215 218 220 223 225 227 226 221 215 213 212 209 207 208 209 209 208 204 198 195 194 191 186 183 183 186 185 183 183 183 180 179 183 186 187 187 190 193 194 192 192 190 187 185 178 168 158 149 142 120 70 40 28 24 18 14 12 8 5 4 4 3 3 1 359 356 354 353
200 199 198 197 197 199 201 202 204 206 208 207 207 206 208 211 216 219 219 218 222 226 227 224 219 214 213 212 208 207 207 207 208 208 203 196 195 196 193 188 184 182 183 185 185 184 185 184 183 184 186 187 187 188 189 189 189 188 184 182 179 170 159 149 138 131 117 92 71 49 28 15 12 8 4 5 5 5 3 2 0 358 354 352 351
203 201 199 199 198 200 201 202 203 206 207 207 206 207 209 213 218 220 218 217 220 223 223 221 217 214 212 209 205 205 206 204 206 206 202 196 196 198 196 191 187 183 182 185 187 186 185 185 183 184 184 184 183 183 184 185 184 181 179 178 174 165 156 144 134 131 127 114 108 87 31 8 4 3 2 4 6 6 4 1 358 356 355 353 352
202 201 201 201 200 199 201 203 205 206 206 206 206 208 211 215 218 218 215 215 219 220 219 218 215 211 208 205 203 204 204 204 204 203 200 198 197 197 197 195 191 187 184 186 189 188 185 183 184 184 183 182 182 182 183 182 178 175 174 171 164 156 149 144 140 148 167 162 135 60 7 357 357 359 2 6 8 8 6 2 358 356 355 355 355
202 202 202 203 202 200 200 203 206 206 205 204 204 207 211 215 216 215 212 214 218 219 217 215 212 208 203 201 202 204 204 204 203 200 199 199 199 198 197 197 196 194 190 190 192 191 187 185 186 185 183 183 183 184 185 182 174 171 169 163 158 151 147 145 147 175 211 224 263 341 351 350 353 358 2 8 11 10 6 2 358 355 355 357 358
201 202 203 203 204 203 201 202 205 206 205 203 204 206 209 212 214 213 212 215 217 217 214 212 210 206 202 200 201 202 204 204 202 199 198 199 201 200 199 199 199 198 196 195 195 195 192 190 190 188 187 187 187 187 188 183 175 172 168 163 159 154 149 148 154 197 236 263 306 349 360 356 354 355 360 6 10 9 6 2 358 355 356 359 0
201 202 201 201 203 203 201 201 203 204 204 204 205 207 209 211 212 211 213 216 218 217 213 210 207 203 200 199 199 201 203 203 201 200 201 202 202 202 202 202 202 201 201 201 200 199 197 195 193 191 191 191 191 192 190 184 178 176 174 171 167 161 156 163 188 232 261 285 313 348 1 359 355 353 356 2 6 6 4 2 360 359 360 2 3
202 204 200 198 200 201 200 201 201 201 202 203 205 207 210 212 212 211 213 217 218 215 211 207 205 202 199 199 200 201 202 202 200 202 204 205 205 206 207 207 205 203 203 203 204 203 201 197 194 192 193 195 196 195 192 187 183 183 182 181 178 172 174 195 227 256 274 289 309 337 350 351 353 355 355 357 359 1 3 3 3 4 6 8 9
201 204 201 200 200 200 199 200 200 200 201 202 204 207 209 211 214 214 215 218 218 214 209 205 203 201 199 200 200 201 202 201 201 203 205 205 205 208 210 212 211 209 205 203 204 205 204 200 196 194 196 199 200 200 198 192 188 190 192 191 187 186 199 225 248 267 279 290 307 325 333 337 346 354 354 352 352 355 1 6 8 12 15 16 16
200 203 203 203 201 200 199 199 200 202 200 198 202 207 208 210 214 215 217 219 218 213 208 205 202 200 200 200 200 203 204 203 202 204 206 205 206 208 211 214 215 215 213 210 209 209 206 202 198 198 201 203 202 200 196 194 198 204 205 202 200 205 223 244 260 275 280 288 300 307 312 319 330 343 351 351 348 351 358 8 15 17 19 20 19
200 201 204 205 205 203 199 194 199 205 201 196 198 201 203 208 213 215 218 219 216 211 207 205 203 201 201 201 202 204 205 204 204 204 204 204 206 209 213 215 216 218 218 217 216 216 210 203 199 201 205 205 198 189 187 195 206 214 215 213 212 219 235 250 264 278 281 284 291 292 297 305 312 329 343 346 345 346 352 4 15 19 18 16 15
200 201 203 205 205 205 197 188 192 202 202 200 200 197 197 203 208 212 217 218 215 212 208 204 203 202 203 203 204 204 203 203 204 204 203 202 203 206 210 214 217 219 217 215 216 215 209 203 202 204 205 200 191 187 193 204 214 221 223 226 227 231 243 253 263 276 281 284 288 289 295 302 304 316 331 336 338 342 344 351 3 11 12 10 8